Retour au catalogue

ORBCOMM FM 5 DEB

ActifLEO
NORAD 51450·DEBRIS·🇺🇸 United States

Lancé Dec 23, 1997 depuis Cape Canaveral Space Force Station

Loading…

Prochains Passages (prochaines 24 heures)

TLE

FraisSource: Space-Track

Époque: Sep 13, 2026, 09:49 UTC

1 51450U 97084Z   26256.40964462  .00004822  00000-0  99463-3 0  9999
2 51450  45.0071 302.1149 0021884 259.1442 100.6952 14.61309656120933

Suivez ORBCOMM FM 5 DEB en temps réel avec AllMySat

Download on the App Store